ProjectID,Date,Electric Generation,Electric Utility Import,Facility Electric Load
,YYYY-MM-DD,kW,kW,kW
391,2016-10-01,0.0,,0.0
391,2016-10-02,0.0,,0.0
391,2016-10-03,0.0,,0.0
391,2016-10-04,0.0,,0.0
391,2016-10-05,0.0,,0.0
391,2016-10-06,0.0,,0.0
391,2016-10-07,0.0,,0.0
391,2016-10-08,0.0,,0.0
391,2016-10-09,0.0,,0.0
391,2016-10-10,0.0,,0.0
391,2016-10-11,0.0,,0.0
391,2016-10-12,0.0,,0.0
391,2016-10-13,0.0,,0.0
391,2016-10-14,0.0,,0.0
391,2016-10-15,0.0,,0.0
391,2016-10-16,0.0,,0.0
391,2016-10-17,0.0,,0.0
391,2016-10-18,0.0,,0.0
391,2016-10-19,0.0,,0.0
391,2016-10-20,0.0,0.0,0.0
391,2016-10-21,0.0,0.0,0.0
391,2016-10-22,0.0,0.0,0.0
391,2016-10-23,0.0,0.0,0.0
391,2016-10-24,0.0,0.0,0.0
391,2016-10-25,0.0,0.0,0.0
391,2016-10-26,0.0,0.0,0.0
391,2016-10-27,0.0,0.0,0.0
391,2016-10-28,0.0,0.0,0.0
391,2016-10-29,18.936249999999998,29.95875,48.894999999999996
391,2016-10-30,2.4633333333333334,33.751666666666665,36.214999999999996
391,2016-10-31,9.54625,34.685833333333335,44.232083333333335
391,2016-11-01,17.034166666666668,31.397499999999997,48.431666666666665
391,2016-11-02,18.318333333333328,28.818749999999998,47.13708333333332
391,2016-11-03,0.9191666666666666,34.93,35.84916666666667
391,2016-11-04,20.390833333333333,31.106666666666666,51.4975
391,2016-11-05,33.51874999999999,26.052916666666665,59.57166666666666
391,2016-11-06,39.625416666666666,27.01,66.63541666666667
391,2016-11-07,44.16166666666666,27.752499999999998,71.91416666666666
391,2016-11-08,32.30291666666666,27.655416666666667,59.95833333333333
391,2016-11-09,24.74875,36.76958333333334,61.51833333333334
391,2016-11-10,37.22958333333333,40.475833333333334,77.70541666666666
391,2016-11-11,41.16916666666667,37.27375,78.44291666666666
391,2016-11-12,44.88249999999999,44.33708333333333,89.21958333333333
391,2016-11-13,38.93833333333334,42.17875,81.11708333333334
391,2016-11-14,38.656666666666666,45.020833333333336,83.67750000000001
391,2016-11-15,48.039583333333326,44.71666666666667,92.75625
391,2016-11-16,36.51583333333334,45.8475,82.36333333333334
391,2016-11-17,28.20958333333333,50.48583333333334,78.69541666666667
391,2016-11-18,43.662083333333335,41.097500000000004,84.75958333333334
391,2016-11-19,44.69083333333334,40.334583333333335,85.02541666666667
391,2016-11-20,54.59166666666666,41.4425,96.03416666666666
391,2016-11-21,54.59958333333333,42.5675,97.16708333333332
391,2016-11-22,54.58083333333334,43.49125,98.07208333333334
391,2016-11-23,54.540833333333325,41.916666666666664,96.45749999999998
391,2016-11-24,54.46958333333333,39.14416666666667,93.61375000000001
391,2016-11-25,52.53791666666667,39.111666666666665,91.64958333333334
391,2016-11-26,54.524999999999984,39.652499999999996,94.17749999999998
391,2016-11-27,54.55708333333331,40.83958333333333,95.39666666666665
391,2016-11-28,54.54749999999999,41.178333333333335,95.72583333333333
391,2016-11-29,46.30083333333334,39.73916666666667,86.04
391,2016-11-30,45.195,41.6625,86.8575
391,2016-12-01,54.43958333333333,41.004583333333336,95.44416666666666
391,2016-12-02,54.54749999999999,40.88875,95.43625
391,2016-12-03,54.55124999999999,40.45166666666667,95.00291666666666
391,2016-12-04,54.56708333333333,41.712916666666665,96.28
391,2016-12-05,54.55458333333333,41.693333333333335,96.24791666666667
391,2016-12-06,54.37291666666669,42.583333333333336,96.95625000000003
391,2016-12-07,54.216666666666676,41.850833333333334,96.06750000000001
391,2016-12-08,54.245,41.755,96.0
391,2016-12-09,54.31499999999999,42.57041666666667,96.88541666666666
391,2016-12-10,54.356249999999996,43.0525,97.40875
391,2016-12-11,54.34708333333333,44.182500000000005,98.52958333333333
391,2016-12-12,54.21833333333334,43.82458333333333,98.04291666666667
391,2016-12-13,54.24833333333334,43.55416666666667,97.80250000000001
391,2016-12-14,54.23458333333334,42.987500000000004,97.22208333333334
391,2016-12-15,54.27291666666665,44.33291666666667,98.60583333333332
391,2016-12-16,52.85833333333333,47.10125,99.95958333333333
391,2016-12-17,54.34041666666667,45.720416666666665,100.06083333333333
391,2016-12-18,46.65625000000001,47.9925,94.64875
391,2016-12-19,54.31833333333333,44.95458333333334,99.27291666666667
391,2016-12-20,54.345833333333324,45.55083333333334,99.89666666666666
391,2016-12-21,53.18541666666667,45.36000000000001,98.54541666666668
391,2016-12-22,50.07416666666666,45.685833333333335,95.75999999999999
391,2016-12-23,48.149166666666666,47.74583333333334,95.89500000000001
391,2016-12-24,42.27458333333333,49.52458333333333,91.79916666666666
391,2016-12-25,42.697083333333325,47.93375,90.63083333333333
391,2016-12-26,47.86875,45.6525,93.52125000000001
391,2016-12-27,35.379999999999995,47.59375,82.97375
391,2016-12-28,35.41291666666667,53.26166666666666,88.67458333333333
391,2016-12-29,35.567499999999995,52.1525,87.72
391,2016-12-30,35.973333333333336,53.52166666666667,89.495
391,2016-12-31,35.75416666666667,53.08416666666667,88.83833333333334
391,2017-01-01,35.188333333333325,51.63041666666667,86.81875
391,2017-01-02,35.40125,52.67041666666666,88.07166666666666
391,2017-01-03,41.74499999999999,49.7725,91.51749999999998
391,2017-01-04,46.457083333333344,47.415416666666665,93.8725
391,2017-01-05,51.482499999999995,45.517500000000005,97.0
391,2017-01-06,54.45208333333334,44.54791666666667,99.00000000000001
391,2017-01-07,52.69166666666667,46.74583333333334,99.4375
391,2017-01-08,54.320000000000014,45.732499999999995,100.05250000000001
391,2017-01-09,53.922500000000014,46.56041666666667,100.48291666666668
391,2017-01-10,54.01124999999999,45.42666666666667,99.43791666666667
391,2017-01-11,53.94291666666666,40.01583333333333,93.95875
391,2017-01-12,39.74208333333333,37.26708333333333,77.00916666666666
391,2017-01-13,43.28375,40.615,83.89875
391,2017-01-14,54.582083333333316,39.025416666666665,93.60749999999999
391,2017-01-15,54.81708333333332,39.96333333333333,94.78041666666665
391,2017-01-16,54.77375000000001,40.961666666666666,95.73541666666668
391,2017-01-17,54.61333333333334,40.187083333333334,94.80041666666668
391,2017-01-18,54.68083333333333,39.80083333333334,94.48166666666667
391,2017-01-19,53.934583333333315,39.067083333333336,93.00166666666665
391,2017-01-20,54.42291666666667,39.53625,93.95916666666668
391,2017-01-21,54.35999999999999,38.50125,92.86124999999998
391,2017-01-22,53.7475,37.583333333333336,91.33083333333335
391,2017-01-23,54.213333333333345,39.45458333333333,93.66791666666668
391,2017-01-24,53.10124999999999,40.995416666666664,94.09666666666666
391,2017-01-25,51.11875,40.410000000000004,91.52875
391,2017-01-26,50.89666666666667,40.6425,91.53916666666666
391,2017-01-27,24.587500000000002,54.31791666666667,78.90541666666667
391,2017-01-28,33.639583333333334,49.175000000000004,82.81458333333333
391,2017-01-29,52.42958333333333,39.687083333333334,92.11666666666667
391,2017-01-30,52.411249999999995,40.126666666666665,92.53791666666666
391,2017-01-31,52.88875000000001,41.25,94.13875000000002
391,2017-02-01,49.61041666666667,40.97083333333333,90.58125000000001
391,2017-02-02,51.966249999999995,40.70125,92.66749999999999
391,2017-02-03,53.062916666666666,40.88,93.94291666666666
391,2017-02-04,53.747499999999995,40.29291666666666,94.04041666666666
391,2017-02-05,52.702916666666674,41.102916666666665,93.80583333333334
391,2017-02-06,51.76416666666666,40.82875,92.59291666666667
391,2017-02-07,51.46833333333334,41.39666666666667,92.86500000000001
391,2017-02-08,46.15583333333334,39.435,85.59083333333334
391,2017-02-09,53.36625,38.57458333333333,91.94083333333333
391,2017-02-10,54.47958333333333,39.12,93.59958333333333
391,2017-02-11,51.96541666666666,39.125,91.09041666666667
391,2017-02-12,52.51916666666668,39.95583333333334,92.47500000000002
391,2017-02-13,53.673333333333325,40.07208333333333,93.74541666666666
391,2017-02-14,52.74750000000001,40.696666666666665,93.44416666666667
391,2017-02-15,51.98416666666665,40.77875,92.76291666666665
391,2017-02-16,53.47749999999999,40.329166666666666,93.80666666666666
391,2017-02-17,52.95416666666667,41.50875,94.46291666666667
391,2017-02-18,35.85125,42.459583333333335,78.31083333333333
391,2017-02-19,22.94208333333333,42.93333333333334,65.87541666666667
391,2017-02-20,40.10791666666667,45.33208333333334,85.44
391,2017-02-21,51.3325,37.276666666666664,88.60916666666667
391,2017-02-22,44.54083333333333,35.880833333333335,80.42166666666667
391,2017-02-23,39.07041666666667,33.05625,72.12666666666667
391,2017-02-24,26.325833333333332,32.11,58.435833333333335
391,2017-02-25,28.723333333333333,37.35916666666667,66.0825
391,2017-02-26,51.71458333333333,36.30416666666667,88.01875
391,2017-02-27,33.07666666666667,44.09375,77.17041666666667
391,2017-02-28,0.0,60.55416666666667,60.55416666666667
391,2017-03-01,18.785833333333336,41.6875,60.473333333333336
391,2017-03-02,2.1266666666666665,58.177083333333336,60.30375
391,2017-03-03,31.437083333333337,47.524166666666666,78.96125
391,2017-03-04,52.87333333333334,36.53375,89.40708333333333
391,2017-03-05,53.16833333333332,36.306666666666665,89.475
391,2017-03-06,51.634583333333346,36.439166666666665,88.07375000000002
391,2017-03-07,50.890833333333326,38.174166666666665,89.065
391,2017-03-08,24.130416666666672,43.192499999999995,67.32291666666667
391,2017-03-09,32.41416666666667,43.45375000000001,75.86791666666667
391,2017-03-10,51.83208333333332,38.46958333333333,90.30166666666665
391,2017-03-11,53.01041666666668,38.64875,91.65916666666668
391,2017-03-12,54.21333333333334,39.17166666666667,93.385
391,2017-03-13,53.95500000000001,39.12583333333333,93.08083333333335
391,2017-03-14,54.041666666666664,37.09875,91.14041666666667
391,2017-03-15,54.355833333333344,39.17916666666667,93.53500000000001
391,2017-03-16,53.79291666666668,38.16791666666666,91.96083333333334
391,2017-03-17,51.603333333333325,39.175000000000004,90.77833333333334
391,2017-03-18,52.19333333333332,38.09125,90.28458333333333
391,2017-03-19,51.40916666666666,38.75,90.15916666666666
391,2017-03-20,42.355,43.29,85.645
391,2017-03-21,26.98166666666667,46.4375,73.41916666666667
391,2017-03-22,33.165416666666665,47.11375,80.27916666666667
391,2017-03-23,51.71708333333333,36.38291666666667,88.1
391,2017-03-24,50.34583333333333,34.04625,84.39208333333333
391,2017-03-25,46.037083333333335,31.25583333333333,77.29291666666667
391,2017-03-26,50.87791666666667,35.557916666666664,86.43583333333333
391,2017-03-27,51.09041666666668,35.8275,86.91791666666668
391,2017-03-28,50.58583333333332,36.157916666666665,86.74374999999998
391,2017-03-29,47.70083333333333,34.57041666666667,82.27125
391,2017-03-30,48.76208333333333,34.11208333333334,82.87416666666667
391,2017-03-31,52.18833333333333,34.97125,87.15958333333333
391,2017-04-01,51.306250000000006,35.428333333333335,86.73458333333335
391,2017-04-02,42.02,32.51958333333334,74.53958333333334
391,2017-04-03,30.597916666666666,38.51291666666666,69.11083333333333
391,2017-04-04,50.27291666666667,34.69291666666667,84.96583333333334
391,2017-04-05,38.985833333333325,33.99916666666667,72.98499999999999
391,2017-04-06,50.680416666666666,35.321666666666665,86.00208333333333
391,2017-04-07,47.668749999999996,36.2025,83.87125
391,2017-04-08,49.13875000000001,36.2025,85.34125
391,2017-04-09,35.565416666666664,37.14333333333334,72.70875000000001
391,2017-04-10,29.175833333333333,41.458333333333336,70.63416666666667
391,2017-04-11,16.626250000000002,49.142500000000005,65.76875000000001
391,2017-04-12,17.114166666666666,48.60166666666667,65.71583333333334
391,2017-04-13,25.876250000000002,47.406666666666666,73.28291666666667
391,2017-04-14,32.17458333333334,43.715,75.88958333333335
391,2017-04-15,28.76124999999999,41.88291666666667,70.64416666666665
391,2017-04-16,17.922916666666666,46.653333333333336,64.57625
391,2017-04-17,16.61125,46.3225,62.933749999999996
391,2017-04-18,23.17583333333333,39.629583333333336,62.805416666666666
391,2017-04-19,28.10291666666666,38.65875,66.76166666666666
391,2017-04-20,25.790000000000003,44.20791666666667,69.99791666666667
391,2017-04-21,49.21125,40.89416666666667,90.10541666666667
391,2017-04-22,34.17291666666667,45.560833333333335,79.73375000000001
391,2017-04-23,36.73833333333332,39.10541666666666,75.84374999999999
391,2017-04-24,34.21624999999999,41.32875,75.54499999999999
391,2017-04-25,47.42333333333334,41.031666666666666,88.45500000000001
391,2017-04-26,32.35,40.45583333333334,72.80583333333334
391,2017-04-27,20.402916666666666,42.29291666666666,62.695833333333326
391,2017-04-28,19.92916666666667,45.8725,65.80166666666668
391,2017-04-29,20.266666666666662,50.49208333333333,70.75874999999999
391,2017-04-30,20.308750000000003,49.70666666666667,70.01541666666668
391,2017-05-01,20.828333333333333,53.946666666666665,74.775
391,2017-05-02,19.876249999999995,48.11375,67.99
391,2017-05-03,20.963333333333335,46.01499999999999,66.97833333333332
391,2017-05-04,23.048333333333332,50.52791666666667,73.57625
391,2017-05-05,23.617500000000003,54.468333333333334,78.08583333333334
391,2017-05-06,19.869583333333335,43.95375000000001,63.82333333333334
391,2017-05-07,25.662916666666664,53.229166666666664,78.89208333333333
391,2017-05-08,20.859166666666663,51.75458333333333,72.61375
391,2017-05-09,21.93541666666667,52.67083333333333,74.60624999999999
391,2017-05-10,22.335833333333337,51.34916666666667,73.685
391,2017-05-11,19.55125,52.918749999999996,72.47
391,2017-05-12,21.979166666666668,51.52583333333333,73.505
391,2017-05-13,21.71208333333334,61.020833333333336,82.73291666666668
391,2017-05-14,22.160833333333333,49.294999999999995,71.45583333333333
391,2017-05-15,22.737083333333334,49.08916666666667,71.82625
391,2017-05-16,21.207083333333333,45.75791666666667,66.965
391,2017-05-17,18.09625,51.723749999999995,69.82
391,2017-05-18,21.99833333333333,53.458333333333336,75.45666666666666
391,2017-05-19,20.231250000000006,56.61666666666667,76.84791666666668
391,2017-05-20,17.112916666666667,51.405,68.51791666666666
391,2017-05-21,20.514583333333334,46.97208333333333,67.48666666666666
391,2017-05-22,21.21625,45.5025,66.71875
391,2017-05-23,20.383333333333336,45.7475,66.13083333333334
391,2017-05-24,18.505,47.05583333333333,65.56083333333333
391,2017-05-25,20.78833333333333,44.535,65.32333333333332
391,2017-05-26,20.388749999999998,47.335,67.72375
391,2017-05-27,15.0775,48.98291666666666,64.06041666666667
391,2017-05-28,16.81833333333333,46.208333333333336,63.02666666666667
391,2017-05-29,18.285,43.567499999999995,61.85249999999999
391,2017-05-30,20.55,42.2125,62.7625
391,2017-05-31,21.22875,42.86041666666667,64.08916666666667
391,2017-06-01,18.757083333333334,47.165416666666665,65.9225
391,2017-06-02,17.570833333333333,47.88166666666667,65.4525
391,2017-06-03,15.23208333333333,46.37625,61.60833333333333
391,2017-06-04,19.32166666666667,45.776250000000005,65.09791666666668
391,2017-06-05,19.0325,44.82541666666666,63.85791666666666
391,2017-06-06,18.53708333333333,44.85916666666666,63.396249999999995
391,2017-06-07,20.398333333333333,43.875,64.27333333333334
391,2017-06-08,18.993333333333332,44.854166666666664,63.8475
391,2017-06-09,19.58125,43.74625,63.3275
391,2017-06-10,16.153750000000002,45.84125,61.995000000000005
391,2017-06-11,17.685416666666665,55.634166666666665,73.31958333333333
391,2017-06-12,17.594583333333333,60.6875,78.28208333333333
391,2017-06-13,18.221666666666668,57.95166666666666,76.17333333333333
391,2017-06-14,16.565416666666668,56.13666666666666,72.70208333333333
391,2017-06-15,17.989166666666666,51.84916666666667,69.83833333333334
391,2017-06-16,19.12,49.57791666666666,68.69791666666666
391,2017-06-17,17.255416666666672,50.94125,68.19666666666667
391,2017-06-18,16.934166666666666,52.95708333333334,69.89125
391,2017-06-19,19.660416666666666,52.14458333333334,71.805
391,2017-06-20,17.270416666666666,51.5625,68.83291666666666
391,2017-06-21,18.01958333333334,51.0925,69.11208333333335
391,2017-06-22,17.765,52.39833333333333,70.16333333333333
391,2017-06-23,21.434583333333332,51.95083333333333,73.38541666666666
391,2017-06-24,16.00708333333333,52.93083333333333,68.93791666666667
391,2017-06-25,17.451666666666668,49.78,67.23166666666667
391,2017-06-26,17.1725,48.91791666666666,66.09041666666667
391,2017-06-27,19.136666666666667,46.24875,65.38541666666667
391,2017-06-28,17.299583333333334,47.86333333333334,65.16291666666667
391,2017-06-29,17.09625,49.72125,66.8175
391,2017-06-30,17.468333333333334,51.536249999999995,69.00458333333333
391,2017-07-01,14.039583333333333,53.51333333333333,67.55291666666666
391,2017-07-02,13.19,53.93333333333334,67.12333333333333
391,2017-07-03,13.491249999999999,53.23583333333334,66.72708333333334
391,2017-07-04,12.755416666666667,51.739583333333336,64.495
391,2017-07-05,14.54,51.32666666666666,65.86666666666666
391,2017-07-06,16.025,49.947916666666664,65.97291666666666
391,2017-07-07,15.905833333333332,50.68375,66.58958333333334
391,2017-07-08,15.985416666666667,50.240833333333335,66.22625000000001
391,2017-07-09,15.865833333333333,50.03125,65.89708333333333
391,2017-07-10,17.159999999999997,50.07041666666667,67.23041666666666
391,2017-07-11,14.824583333333335,53.39458333333334,68.21916666666667
391,2017-07-12,17.59541666666667,51.73041666666666,69.32583333333334
391,2017-07-13,18.78833333333333,52.54291666666666,71.33125
391,2017-07-14,18.732916666666668,49.63291666666667,68.36583333333334
391,2017-07-15,14.5225,50.22125,64.74375
391,2017-07-16,15.789166666666668,50.64958333333333,66.43875
391,2017-07-17,14.079166666666667,52.94916666666666,67.02833333333334
391,2017-07-18,14.426249999999998,53.135416666666664,67.56166666666667
391,2017-07-19,14.56541666666667,53.78666666666667,68.35208333333334
391,2017-07-20,13.8225,54.34375,68.16625
391,2017-07-21,12.972083333333332,54.036249999999995,67.00833333333333
391,2017-07-22,12.967083333333335,53.85166666666667,66.81875
391,2017-07-23,9.83875,54.02875,63.8675
391,2017-07-24,14.479166666666666,50.41916666666666,64.89833333333333
391,2017-07-25,18.064166666666665,46.509166666666665,64.57333333333332
391,2017-07-26,13.398333333333333,49.51958333333334,62.91791666666667
391,2017-07-27,20.76833333333333,46.854166666666664,67.6225
391,2017-07-28,16.257916666666667,48.459583333333335,64.7175
391,2017-07-29,16.045,43.85041666666667,59.89541666666667
391,2017-07-30,17.486666666666668,42.45708333333334,59.94375000000001
391,2017-07-31,18.245,43.23041666666666,61.47541666666666
391,2017-08-01,17.462083333333332,44.75375,62.21583333333333
391,2017-08-02,16.811666666666667,46.45458333333334,63.26625000000001
391,2017-08-03,15.89416666666667,45.34375,61.23791666666667
391,2017-08-04,16.42625,44.78375,61.209999999999994
391,2017-08-05,16.984166666666663,43.34125,60.32541666666667
391,2017-08-06,16.15458333333333,43.59375,59.748333333333335
391,2017-08-07,8.72375,48.08708333333333,56.810833333333335
391,2017-08-08,0.0,53.083333333333336,53.083333333333336
391,2017-08-09,0.0,53.35541666666666,53.35541666666666
391,2017-08-10,12.28375,47.696666666666665,59.98041666666666
391,2017-08-11,16.996666666666666,44.82666666666666,61.82333333333332
391,2017-08-12,13.979166666666664,45.509166666666665,59.48833333333333
391,2017-08-13,16.25208333333333,45.78125,62.03333333333333
391,2017-08-14,14.274583333333338,46.713750000000005,60.988333333333344
391,2017-08-15,16.75875,44.43333333333334,61.192083333333336
391,2017-08-16,18.619166666666665,44.16416666666667,62.78333333333333
391,2017-08-17,18.119583333333335,43.28666666666667,61.40625
391,2017-08-18,10.6725,49.54666666666666,60.21916666666666
391,2017-08-19,21.196250000000003,42.270833333333336,63.467083333333335
391,2017-08-20,17.136666666666667,44.32708333333333,61.46374999999999
391,2017-08-21,15.453333333333333,46.415,61.86833333333333
391,2017-08-22,17.658333333333335,51.8425,69.50083333333333
391,2017-08-23,15.304166666666667,57.54458333333333,72.84875
391,2017-08-24,17.135416666666668,50.70666666666667,67.84208333333333
391,2017-08-25,15.880833333333333,50.76708333333334,66.64791666666667
391,2017-08-26,9.3725,50.97666666666667,60.34916666666667
391,2017-08-27,21.350416666666664,45.98291666666666,67.33333333333333
391,2017-08-28,17.36833333333333,48.540416666666665,65.90875
391,2017-08-29,18.744583333333328,45.2475,63.992083333333326
391,2017-08-30,17.774166666666666,47.01416666666666,64.78833333333333
391,2017-08-31,16.847916666666666,47.42083333333333,64.26875
391,2017-09-01,29.819166666666664,41.361666666666665,71.18083333333333
391,2017-09-02,39.32541666666667,31.45958333333333,70.785
391,2017-09-03,39.32083333333334,32.697916666666664,72.01875000000001
391,2017-09-04,39.82166666666666,33.17583333333334,72.9975
391,2017-09-05,39.675,42.33625,82.01124999999999
391,2017-09-06,39.612500000000004,38.947916666666664,78.56041666666667
391,2017-09-07,39.88833333333333,35.15333333333333,75.04166666666666
391,2017-09-08,39.61041666666666,35.22416666666667,74.83458333333333
391,2017-09-09,39.775833333333324,33.428333333333335,73.20416666666665
391,2017-09-10,40.11875,31.9075,72.02625
391,2017-09-11,39.72666666666667,33.0625,72.78916666666666
391,2017-09-12,39.57916666666666,36.99875,76.57791666666665
391,2017-09-13,39.6875,38.88,78.5675
391,2017-09-14,38.769999999999996,41.200833333333335,79.97083333333333
391,2017-09-15,39.50291666666667,40.845,80.34791666666666
391,2017-09-16,39.174166666666665,41.459583333333335,80.63374999999999
391,2017-09-17,39.25999999999999,41.0675,80.32749999999999
391,2017-09-18,39.60708333333334,39.669583333333335,79.27666666666667
391,2017-09-19,39.455416666666665,42.155,81.61041666666667
391,2017-09-20,38.63708333333333,41.85541666666666,80.49249999999999
391,2017-09-21,39.119166666666665,41.30708333333333,80.42625
391,2017-09-22,39.22541666666667,39.86875,79.09416666666667
391,2017-09-23,39.15749999999999,40.93083333333333,80.08833333333332
391,2017-09-24,39.385,42.464999999999996,81.85
391,2017-09-25,39.54666666666667,43.58041666666667,83.12708333333333
391,2017-09-26,39.126666666666665,43.12375,82.25041666666667
391,2017-09-27,39.56458333333333,44.8425,84.40708333333333
391,2017-09-28,39.4,39.94,79.34
391,2017-09-29,39.57125,35.575833333333335,75.14708333333334
391,2017-09-30,39.12333333333333,33.115833333333335,72.23916666666666
391,2017-10-01,39.95374999999999,32.704166666666666,72.65791666666667
391,2017-10-02,39.736666666666665,33.93,73.66666666666666
391,2017-10-03,39.69458333333333,33.72,73.41458333333333
391,2017-10-04,39.70249999999999,35.384166666666665,75.08666666666666
391,2017-10-05,39.208333333333336,37.035000000000004,76.24333333333334
391,2017-10-06,39.26,38.5,77.75999999999999
391,2017-10-07,38.91625000000001,38.5625,77.47875000000002
391,2017-10-08,38.96458333333333,40.302083333333336,79.26666666666667
391,2017-10-09,39.208333333333336,40.8775,80.08583333333334
391,2017-10-10,39.21874999999999,38.697916666666664,77.91666666666666
391,2017-10-11,39.425416666666656,38.885416666666664,78.31083333333332
391,2017-10-12,39.36166666666666,35.420833333333334,74.7825
391,2017-10-13,40.25,33.46208333333333,73.71208333333334
391,2017-10-14,39.907916666666665,34.31,74.21791666666667
391,2017-10-15,39.32083333333332,36.91375,76.23458333333332
391,2017-10-16,39.48,32.745,72.225
391,2017-10-17,46.62583333333333,32.65625,79.28208333333333
391,2017-10-18,47.00208333333333,28.600416666666664,75.60249999999999
391,2017-10-19,39.267083333333325,26.74208333333333,66.00916666666666
391,2017-10-20,38.46916666666667,27.675833333333333,66.14500000000001
391,2017-10-21,39.32125,28.14708333333333,67.46833333333333
391,2017-10-22,39.62166666666666,28.262916666666666,67.88458333333332
391,2017-10-23,41.545,28.93625,70.48125
391,2017-10-24,35.89458333333333,32.2175,68.11208333333333
391,2017-10-25,47.53875,25.21083333333333,72.74958333333333